Location: La Pernelle
(49.6188°N, 1.2999°W)
Time: 06:02:25
(UTC+00:00)

Cosmos 1624 Rocket - Visible Passes

Search period start: 26 October 2021 00:00
Search period end: 05 November 2021 00:00
Orbit: 756 x 785 km, 74.0° (Epoch: 25 October)

Date Brightness Start Highest point End Pass type
(mag) Time Alt. Az. Time Alt. Az. Time Alt. Az.
26 Oct 6.3 03:43:45 10° N 03:47:53 22° NE 03:51:59 10° E visible
26 Oct 4.0 05:25:17 10° NNW 05:30:38 76° WSW 05:35:55 10° SSE visible
26 Oct 5.5 18:26:44 10° SSE 18:28:55 19° SE 18:28:55 19° SE visible
26 Oct 5.7 20:07:10 10° SW 20:09:21 25° SW 20:09:21 25° SW visible
27 Oct 6.7 03:07:53 10° N 03:11:07 16° NE 03:14:20 10° E visible
27 Oct 4.3 04:48:54 10° NNW 04:54:16 71° ENE 04:59:33 10° SSE visible
27 Oct 5.6 17:52:04 10° ESE 17:54:45 14° E 17:54:58 14° E visible
27 Oct 4.0 19:30:42 10° SSW 19:35:23 70° SSW 19:35:23 70° SSW visible
27 Oct 6.8 21:15:03 10° W 21:15:49 13° W 21:15:49 13° W visible
28 Oct 6.9 02:32:26 10° NNE 02:34:14 12° NE 02:36:01 10° NE visible
28 Oct 5.0 04:12:38 10° NNW 04:17:47 47° ENE 04:22:54 10° SE visible
28 Oct 4.8 05:55:08 10° NW 05:59:42 30° W 06:04:15 10° SSW visible
28 Oct 4.0 18:54:32 10° S 18:59:43 56° ESE 19:01:14 41° NE visible
28 Oct 5.9 20:37:39 10° WSW 20:41:39 27° WNW 20:41:39 27° WNW visible
29 Oct 5.7 03:36:40 11° N 03:41:14 32° NE 03:45:57 10° ESE visible
29 Oct 4.3 05:18:27 10° NNW 05:23:32 47° WSW 05:28:34 10° S visible
29 Oct 4.6 18:18:43 10° SSE 18:23:31 36° ESE 18:26:50 18° NE visible
29 Oct 5.2 20:00:35 10° SW 20:05:35 40° WNW 20:07:14 32° NNW visible
30 Oct 6.2 03:02:21 18° NNE 03:04:34 22° NE 03:08:41 10° E visible
30 Oct 3.9 04:42:46 15° NNW 04:47:16 74° WSW 04:52:32 10° SSE visible
30 Oct 5.1 17:43:18 10° SSE 17:47:24 23° E 17:51:31 10° NE visible
30 Oct 4.5 19:23:49 10° SW 19:29:05 60° WNW 19:32:32 22° NNE visible
30 Oct 6.7 21:09:37 10° WNW 21:12:24 14° NW 21:12:54 14° NNW visible
31 Oct 6.6 02:28:16 16° NE 02:28:16 16° NE 02:31:03 10° E visible
31 Oct 4.1 04:08:42 36° NNW 04:10:55 73° ENE 04:16:12 10° SSE visible
31 Oct 5.3 05:49:08 11° NW 05:52:25 19° W 05:55:59 10° SW visible
31 Oct 4.0 18:47:20 10° SSW 18:52:40 89° ESE 18:57:35 13° NNE visible
31 Oct 6.4 20:31:46 10° W 20:35:34 19° NW 20:37:56 15° NNW visible
01 Nov 4.9 03:34:47 47° ENE 03:34:47 47° ENE 03:39:33 10° SE visible
01 Nov 4.8 05:15:13 27° WNW 05:16:20 29° W 05:20:49 10° SSW visible
01 Nov 4.1 18:11:09 10° S 18:16:22 58° ESE 18:21:37 10° NNE visible
01 Nov 5.9 19:54:20 10° WSW 19:58:52 27° NW 20:02:46 13° N visible
02 Nov 6.3 03:00:56 19° ESE 03:00:56 19° ESE 03:02:37 10° ESE visible
02 Nov 4.6 04:41:22 39° SW 04:41:22 39° SW 04:45:10 10° S visible
02 Nov 4.6 17:35:19 10° SSE 17:40:09 37° ESE 17:45:02 10° NE visible
02 Nov 5.3 19:17:16 10° SW 19:22:15 39° WNW 19:27:16 10° NNE visible
03 Nov 5.7 04:07:29 21° S 04:07:29 21° S 04:09:09 10° SSE visible
03 Nov 4.6 18:40:29 10° SW 18:45:44 59° WNW 18:51:03 10° NNE visible
03 Nov 6.8 20:26:22 10° WNW 20:29:04 14° NW 20:31:46 10° N visible
04 Nov 4.0 18:03:59 10° SSW 18:09:19 89° WNW 18:14:43 10° NNE visible
04 Nov 6.4 19:48:28 10° W 19:52:15 19° NW 19:56:01 10° N visible
